Simultaneous Nadir Overpasses (SNOs) Predictions

Prediction of SNOs between NPP and TERRA Satellite Orbit:

Table of predicted SNOs for the next 14.0 days since TLE Epoch: 2/20/2016
Index Date (NPP) Time (NPP) Lat,Lon (NPP) SZA (NPP ) Date (TERRA) Time (TERRA) Lat,Lon (TERRA) SZA (TERRA ) Distance(km) Time Diff (sec)
1 02/20/2016 09:49:55 68.62, 31.25 79.62 02/20/2016 09:51:06 68.61, 31.26 79.61 0.34 71
2 02/20/2016 10:40:36 -68.49,-161.26 100.52 02/20/2016 10:40:36 -68.50,-161.25 100.52 0.81 0
3 02/20/2016 11:31:18 68.25, 6.36 79.22 02/20/2016 11:30:05 68.28, 6.13 79.26 9.73 73
4 02/23/2016 02:06:46 68.58, 147.08 78.61 02/23/2016 02:07:32 68.56, 147.09 78.59 2.17 46
5 02/23/2016 02:57:27 -68.45, -45.43 101.54 02/23/2016 02:57:02 -68.44, -45.42 101.54 0.70 25
6 02/23/2016 03:47:52 67.29, 123.31 77.26 02/23/2016 03:46:46 67.38, 120.99 77.43 99.67 66
7 02/25/2016 17:33:09 -69.52, 94.26 101.39 02/25/2016 17:34:16 -69.39, 96.40 101.59 84.79 67
8 02/25/2016 18:23:36 68.49, -97.02 77.54 02/25/2016 18:23:57 68.50, -97.09 77.54 2.78 21
9 02/25/2016 19:14:18 -68.41, 70.40 102.57 02/25/2016 19:13:27 -68.39, 70.41 102.58 2.48 51
10 02/28/2016 09:49:43 -68.63,-148.74 103.31 02/28/2016 09:50:52 -68.61,-148.69 103.35 2.87 69
11 02/28/2016 10:40:26 68.46, 18.80 76.50 02/28/2016 10:40:20 68.44, 18.74 76.48 3.37 6
12 02/28/2016 11:31:05 -68.22,-173.57 103.77 02/28/2016 11:29:51 -68.28,-173.82 103.70 12.42 74
13 03/02/2016 02:06:33 -68.55, -32.85 104.42 03/02/2016 02:07:15 -68.56, -32.86 104.42 0.76 42
14 03/02/2016 02:57:17 68.44, 134.61 75.45 03/02/2016 02:56:42 68.43, 134.64 75.45 1.27 35
15 03/04/2016 17:32:50 69.05, -85.05 75.08 03/04/2016 17:34:01 68.93, -84.11 74.93 39.71 71
16 03/04/2016 18:23:24 -68.52, 82.97 105.48 03/04/2016 18:23:37 -68.49, 82.98 105.52 3.37 13
17 03/04/2016 19:14:07 68.36,-109.51 74.34 03/04/2016 19:13:04 68.37,-109.53 74.35 0.97 63




NCC Satellite Simultaneous Nadir Overpasses (SNOs) Prediction Service
